Newport Municipal Airport Newport US
ICAO: KONP
IATA: ONP
Category: Medium
Scheduled Services: No

Elevation: 160 ft
TransAlt. 18000 ft.

Airport Communications:
AWOS 3:133.9
SEATTLE CNTR:125.8
CTAF/UNICOM:122.8

KONP Zoom In..

If you have problems with the map follow the link
https://www.worldairports.se/pages/airport.php?
ICAO=KONP

Runways:

(A) RW 02 length 3001 ft width 75 ft
---- / hdg 18

(B) RW 16 length 5398 ft width 150 ft
ILS 111.50 / hdg 158

(C) RW 20 length 3001 ft width 75 ft
---- / hdg 198

(D) RW 34 length 5398 ft width 150 ft
---- / hdg 338

Location; KONP
Day. 21 / Time. 18.15 Zulu
* Altimeter: 30.04
* Temperature: 10° c. 50°f.
* Wind from: 220° Speed 04 kn.
Dewpoint: 10° c.
Visibility: 1 Statute Miles.
Clouds: Overcast 300 ft.
Conditions: Mist.

KONP 211815Z AUTO 22004KT 1SM BR OVC003 10/10 A3004 RMK AO2


Wind From 220°
Speed 04 kn.

 
 
jpsmedia.com for Web Design worldairports.se 2018   terms of use